Thunderstorms From: 25-05-2018 05:05 Until: 26-05-2018 05:00 warning for: Thunderstorms Level: Yellow info button

Although rather usual in this region, locally or potentially dangerous phenomena are expected. (such as local winds, summer thunderstorms, rising streams or high waves) Be aware and pay attention to the latest weather updates, especially if you carry out activities exposed to weather or close to a stream or shoreline. 


Meteo18 Weather Cam more information Meteo18 Weather Cam


warning for Thunderstorms more information blitzortung!


Rain radar more information rain snow radar


Visit our other weather sites:

Template documentation
and downloads

And another site



Weather Underground History page Text

Daily Summary for February 23, 2017 Units:  Metric    English   Both
« Previous Day
Next Day »
Daily Weekly Monthly Yearly Custom
  High: Low: Average:
Temperature: -17.8 °C -14.1 °C -13.4 °C
Dew Point: -17.8 °C -15.3 °C -14.4 °C
Humidity: Humidity % 80 % 88 %
Wind Speed: 0 km/h 2.6 km/h 20.8 km/h
Wind Gust: 0 km/h - -
Wind:- - WSW
Pressure: 0 hPa 34178.3 hPa -
Precipitation: 109.22 mm    
Historical Graphs
 
 
Tabular Data for February 23, 2017
Time Temperature Dew Point Pressure Wind Wind Speed Wind Gust Humidity Rainfall Rate (Hourly)
-17.8 °C -17.8 °C 0 hPa Calm     Humidity % 0 mm
00:02 -13.1 °C -14.2 °C 34462.7 hPa WSW 7.7 km/h 33.6 km/h 88 % 0 mm
00:12 -13.2 °C -14.3 °C 34462.7 hPa WSW 31.1 km/h 33.6 km/h 87 % 0 mm
00:17 -13.2 °C -14.3 °C 34462.7 hPa SSW 2.6 km/h 25.9 km/h 87 % 0 mm
00:22 -13.2 °C -14.2 °C 34462.7 hPa SW 18.2 km/h 31.1 km/h 88 % 0 mm
00:27 -13.2 °C -14.2 °C 34462.7 hPa SSW 7.7 km/h 31.1 km/h 88 % 0 mm
00:32 -13.2 °C -14.3 °C 34462.7 hPa SSW 5.1 km/h 25.9 km/h 88 % 0 mm
00:37 -13.2 °C -14.3 °C 34462.7 hPa West 12.9 km/h 25.9 km/h 88 % 0 mm
00:42 -13.2 °C -14.3 °C 34462.7 hPa SSW 5.1 km/h 31.1 km/h 87 % 0 mm
00:47 -13.2 °C -14.3 °C 34452.6 hPa WSW 20.8 km/h 31.1 km/h 87 % 0 mm
00:52 -13.2 °C -14.3 °C 34452.6 hPa South 10.3 km/h 31.1 km/h 87 % 0 mm
00:57 -13.2 °C -14.3 °C 34462.7 hPa SSW 7.7 km/h 33.6 km/h 87 % 0 mm
01:02 -13.2 °C -14.3 °C 34462.7 hPa SSW 2.6 km/h 33.6 km/h 88 % 0 mm
01:07 -13.3 °C -14.3 °C 34452.6 hPa SW 10.3 km/h 15.6 km/h 88 % 0 mm
01:12 -13.3 °C -14.3 °C 34452.6 hPa SW 15.6 km/h 15.6 km/h 88 % 0 mm
01:17 -13.3 °C -14.3 °C 34452.6 hPa South 5.1 km/h 28.5 km/h 88 % 0 mm
01:22 -13.3 °C -14.3 °C 34452.6 hPa SW 10.3 km/h 28.5 km/h 88 % 0 mm
01:32 -13.3 °C -14.4 °C 34452.6 hPa WSW 7.7 km/h 25.9 km/h 87 % 0 mm
01:42 -13.3 °C -14.4 °C 34452.6 hPa SSE 10.3 km/h 25.9 km/h 87 % 0 mm
01:47 -13.3 °C -14.3 °C 34442.4 hPa SW 15.6 km/h 23.3 km/h 88 % 0 mm
01:52 -13.3 °C -14.3 °C 34442.4 hPa South 5.1 km/h 23.3 km/h 88 % 0 mm
01:57 -13.3 °C -14.4 °C 34442.4 hPa SW 12.9 km/h 23.3 km/h 88 % 0 mm
02:02 -13.4 °C -14.4 °C 34442.4 hPa SW 12.9 km/h 23.3 km/h 88 % 0 mm
02:07 -13.4 °C -14.4 °C 34442.4 hPa SW 20.8 km/h 23.3 km/h 88 % 0 mm
02:12 -13.4 °C -14.5 °C 34442.4 hPa SW 7.7 km/h 23.3 km/h 87 % 0 mm
02:17 -13.4 °C -14.4 °C 34428.8 hPa SE 18.2 km/h 33.6 km/h 88 % 0 mm
02:22 -13.4 °C -14.5 °C 34442.4 hPa WSW 10.3 km/h 33.6 km/h 88 % 0 mm
02:27 -13.4 °C -14.5 °C 34442.4 hPa West 20.8 km/h 33.6 km/h 88 % 0 mm
02:32 -13.4 °C -14.6 °C 34442.4 hPa WSW 18.2 km/h 33.6 km/h 87 % 0 mm
02:37 -13.5 °C -14.6 °C 34442.4 hPa SW 7.7 km/h 28.5 km/h 88 % 0 mm
02:42 -13.5 °C -14.6 °C 34428.8 hPa WSW 10.3 km/h 28.5 km/h 88 % 0 mm
02:47 -13.5 °C -14.6 °C 34428.8 hPa SW 10.3 km/h 23.3 km/h 88 % 0 mm
02:52 -13.6 °C -14.5 °C 34418.7 hPa SSW 10.3 km/h 23.3 km/h 89 % 0 mm
02:57 -13.6 °C -14.5 °C 34418.7 hPa SW 7.7 km/h 23.3 km/h 89 % 0 mm
03:02 -13.6 °C -14.6 °C 34418.7 hPa West 15.6 km/h 23.3 km/h 89 % 0 mm
03:07 -13.6 °C -14.6 °C 34418.7 hPa SW 10.3 km/h 18.2 km/h 89 % 0 mm
03:12 -13.7 °C -14.6 °C 34405.1 hPa SSW 10.3 km/h 18.2 km/h 89 % 0 mm
03:17 -13.7 °C -14.6 °C 34405.1 hPa SSW 10.3 km/h 20.8 km/h 90 % 0 mm
03:22 -13.7 °C -14.6 °C 34405.1 hPa SW 15.6 km/h 20.8 km/h 90 % 0 mm
03:27 -13.8 °C -14.6 °C 34405.1 hPa SSW 18.2 km/h 23.3 km/h 90 % 0 mm
03:32 -13.8 °C -14.6 °C 34405.1 hPa SSW 10.3 km/h 23.3 km/h 90 % 0 mm
03:42 -13.8 °C -14.7 °C 34395 hPa SSW 12.9 km/h 25.9 km/h 90 % 0 mm
03:52 -13.8 °C -14.7 °C 34384.8 hPa SSW 10.3 km/h 28.5 km/h 90 % 0 mm
03:57 -13.8 °C -14.7 °C 34384.8 hPa SSW 18.2 km/h 28.5 km/h 90 % 0 mm
04:02 -13.9 °C -14.7 °C 34384.8 hPa SW 18.2 km/h 28.5 km/h 91 % 0 mm
04:07 -13.9 °C -14.7 °C 34384.8 hPa SW 18.2 km/h 28.5 km/h 91 % 0 mm
04:12 -13.9 °C -14.7 °C 34371.3 hPa South 10.3 km/h 28.5 km/h 91 % 0 mm
04:17 -13.9 °C -14.7 °C 34371.3 hPa SSW 12.9 km/h 28.5 km/h 90 % 0 mm
04:22 -13.9 °C -14.7 °C 34371.3 hPa SSW 15.6 km/h 28.5 km/h 90 % 0 mm
04:32 -13.8 °C -14.8 °C 34371.3 hPa SSW 10.3 km/h 28.5 km/h 89 % 0 mm
04:37 -13.8 °C -14.8 °C 34361.1 hPa WSW 18.2 km/h 33.6 km/h 89 % 0 mm
04:42 -13.8 °C -14.8 °C 34361.1 hPa SW 23.3 km/h 33.6 km/h 89 % 0 mm
04:47 -13.9 °C -14.8 °C 34361.1 hPa WSW 20.8 km/h 36.2 km/h 89 % 0 mm
04:52 -13.9 °C -14.9 °C 34347.6 hPa SW 20.8 km/h 36.2 km/h 89 % 0 mm
05:02 -13.9 °C -14.8 °C 34347.6 hPa SSW 25.9 km/h 36.2 km/h 90 % 0 mm
05:07 -13.9 °C -14.8 °C 34347.6 hPa SW 25.9 km/h 36.2 km/h 90 % 0 mm
05:12 -14 °C -14.8 °C 34347.6 hPa SSW 15.6 km/h 36.2 km/h 90 % 0 mm
05:17 -14 °C -14.8 °C 34347.6 hPa SW 25.9 km/h 41.4 km/h 90 % 0 mm
05:22 -14 °C -14.8 °C 34347.6 hPa SW 12.9 km/h 41.4 km/h 90 % 0 mm
05:32 -14 °C -14.8 °C 34337.4 hPa SW 20.8 km/h 31.1 km/h 90 % 0 mm
05:42 -14 °C -14.8 °C 34337.4 hPa SW 25.9 km/h 46.7 km/h 90 % 0 mm
05:52 -14 °C -14.8 °C 34337.4 hPa SSW 12.9 km/h 46.7 km/h 90 % 0 mm
06:02 -14 °C -14.8 °C 34327.3 hPa SW 20.8 km/h 38.8 km/h 90 % 0 mm
06:12 -14 °C -14.8 °C 34327.3 hPa SW 25.9 km/h 31.1 km/h 90 % 0 mm
06:17 -14 °C -14.8 °C 34327.3 hPa WSW 12.9 km/h 31.1 km/h 90 % 0 mm
06:22 -14 °C -14.8 °C 34327.3 hPa SW 15.6 km/h 31.1 km/h 90 % 0 mm
06:27 -14.1 °C -14.9 °C 34327.3 hPa SW 18.2 km/h 33.6 km/h 90 % 0 mm
06:32 -14.1 °C -14.9 °C 34313.7 hPa SSW 15.6 km/h 33.6 km/h 90 % 0 mm
06:42 -14.1 °C -14.8 °C 34313.7 hPa WSW 15.6 km/h 28.5 km/h 91 % 0 mm
06:47 -14.1 °C -14.9 °C 34303.6 hPa SW 31.1 km/h 33.6 km/h 90 % 0 mm
06:52 -14.1 °C -14.9 °C 34303.6 hPa SW 20.8 km/h 33.6 km/h 90 % 0 mm
06:57 -14.1 °C -14.9 °C 34303.6 hPa SW 20.8 km/h 33.6 km/h 90 % 0 mm
07:02 -14.1 °C -14.8 °C 34303.6 hPa SSW 10.3 km/h 33.6 km/h 91 % 0 mm
07:12 -14.1 °C -14.8 °C 34303.6 hPa SW 28.5 km/h 31.1 km/h 91 % 0 mm
07:17 -14.1 °C -14.9 °C 34303.6 hPa SW 20.8 km/h 31.1 km/h 90 % 0 mm
07:22 -14.1 °C -14.9 °C 34303.6 hPa SW 18.2 km/h 38.8 km/h 90 % 0 mm
07:27 -14.1 °C -14.9 °C 34303.6 hPa WSW 31.1 km/h 38.8 km/h 90 % 0 mm
07:32 -14.1 °C -15 °C 34293.4 hPa SSW 20.8 km/h 38.8 km/h 89 % 0 mm
07:37 -14.1 °C -15 °C 34293.4 hPa WSW 20.8 km/h 38.8 km/h 89 % 0 mm
07:42 -14.1 °C -15 °C 34303.6 hPa WSW 15.6 km/h 36.2 km/h 89 % 0 mm
07:47 -14.1 °C -14.9 °C 34293.4 hPa SSW 23.3 km/h 36.2 km/h 90 % 0 mm
07:52 -14.1 °C -14.9 °C 34293.4 hPa WSW 33.6 km/h 38.8 km/h 90 % 0 mm
07:57 -14.1 °C -14.9 °C 34293.4 hPa SSW 15.6 km/h 38.8 km/h 90 % 0 mm
08:02 -14.1 °C -14.9 °C 34293.4 hPa SSW 23.3 km/h 38.8 km/h 90 % 0 mm
08:07 -14.1 °C -15 °C 34293.4 hPa WSW 12.9 km/h 38.8 km/h 89 % 0 mm
08:12 -14.1 °C -15 °C 34293.4 hPa SW 15.6 km/h 38.8 km/h 89 % 0 mm
08:17 -14.1 °C -15 °C 34293.4 hPa SW 23.3 km/h 38.8 km/h 89 % 0 mm
08:22 -14.1 °C -15 °C 34293.4 hPa SW 23.3 km/h 38.8 km/h 89 % 0 mm
08:27 -14.1 °C -15.1 °C 34293.4 hPa SW 23.3 km/h 38.8 km/h 88 % 0 mm
08:32 -14 °C -15 °C 34293.4 hPa SSW 25.9 km/h 38.8 km/h 88 % 0 mm
08:37 -14 °C -15 °C 34293.4 hPa SW 12.9 km/h 38.8 km/h 88 % 0 mm
08:42 -14 °C -15 °C 34293.4 hPa WSW 18.2 km/h 41.4 km/h 88 % 0 mm
08:47 -13.9 °C -14.9 °C 34293.4 hPa WSW 10.3 km/h 41.4 km/h 88 % 0 mm
08:52 -13.9 °C -14.9 °C 34293.4 hPa SSW 25.9 km/h 41.4 km/h 88 % 0 mm
08:57 -13.9 °C -14.9 °C 34293.4 hPa SW 33.6 km/h 41.4 km/h 88 % 0 mm
09:02 -13.9 °C -14.9 °C 34279.9 hPa WSW 12.9 km/h 36.2 km/h 88 % 0 mm
09:07 -13.9 °C -14.9 °C 34279.9 hPa SW 12.9 km/h 36.2 km/h 88 % 0 mm
09:12 -13.9 °C -14.9 °C 34279.9 hPa SW 20.8 km/h 38.8 km/h 88 % 0 mm
09:17 -13.9 °C -14.8 °C 34279.9 hPa WSW 12.9 km/h 38.8 km/h 89 % 0 mm
09:22 -13.9 °C -14.9 °C 34279.9 hPa SW 41.4 km/h 41.4 km/h 88 % 0 mm
09:32 -13.9 °C -14.9 °C 34279.9 hPa WSW 18.2 km/h 44.1 km/h 88 % 0 mm
09:42 -13.9 °C -14.9 °C 34279.9 hPa West 5.1 km/h 44.1 km/h 88 % 0 mm
09:47 -13.9 °C -15.1 °C 34279.9 hPa SW 33.6 km/h 44.1 km/h 87 % 0 mm
09:52 -13.9 °C -15.1 °C 34269.7 hPa WSW 31.1 km/h 44.1 km/h 87 % 0 mm
09:57 -13.9 °C -15.1 °C 34269.7 hPa WSW 18.2 km/h 44.1 km/h 87 % 0 mm
10:02 -13.8 °C -14.9 °C 34269.7 hPa SW 28.5 km/h 46.7 km/h 87 % 0 mm
10:07 -13.8 °C -14.9 °C 34269.7 hPa SW 41.4 km/h 46.7 km/h 87 % 0 mm
10:12 -13.8 °C -15 °C 34269.7 hPa SSW 23.3 km/h 46.7 km/h 86 % 0 mm
10:17 -13.8 °C -15 °C 34269.7 hPa SW 28.5 km/h 46.7 km/h 86 % 0 mm
10:22 -13.8 °C -15 °C 34269.7 hPa SW 31.1 km/h 49.2 km/h 86 % 0 mm
10:27 -13.8 °C -15.1 °C 34269.7 hPa WSW 20.8 km/h 49.2 km/h 85 % 0 mm
10:32 -13.7 °C -14.9 °C 34269.7 hPa WSW 31.1 km/h 62.1 km/h 86 % 0 mm
10:37 -13.7 °C -15 °C 34269.7 hPa SW 5.1 km/h 62.1 km/h 85 % 0 mm
10:42 -13.6 °C -14.8 °C 34269.7 hPa WSW 25.9 km/h 62.1 km/h 86 % 0 mm
10:47 -13.6 °C -14.9 °C 34256.2 hPa SSW 18.2 km/h 62.1 km/h 85 % 0 mm
10:52 -13.5 °C -14.9 °C 34256.2 hPa SW 36.2 km/h 51.8 km/h 84 % 0 mm
10:57 -13.4 °C -14.8 °C 34256.2 hPa WSW 20.8 km/h 51.8 km/h 85 % 0 mm
11:02 -13.4 °C -14.8 °C 34256.2 hPa West 41.4 km/h 54.4 km/h 84 % 0 mm
11:07 -13.5 °C -14.8 °C 34256.2 hPa SW 33.6 km/h 54.4 km/h 85 % 0 mm
11:12 -13.4 °C -14.8 °C 34256.2 hPa SW 33.6 km/h 57 km/h 85 % 0 mm
11:17 -13.4 °C -14.8 °C 34256.2 hPa West 12.9 km/h 57 km/h 85 % 0 mm
11:22 -13.5 °C -14.9 °C 34256.2 hPa West 33.6 km/h 57 km/h 84 % 0 mm
11:27 -13.5 °C -15 °C 34256.2 hPa West 20.8 km/h 57 km/h 83 % 0 mm
11:37 -13.4 °C -14.8 °C 34269.7 hPa West 41.4 km/h 59.5 km/h 84 % 0 mm
11:42 -13.4 °C -14.8 °C 34269.7 hPa West 54.4 km/h 59.5 km/h 84 % 0 mm
11:47 -13.5 °C -14.9 °C 34269.7 hPa West 18.2 km/h 59.5 km/h 84 % 0 mm
11:52 -13.6 °C -14.9 °C 34269.7 hPa WSW 20.8 km/h 59.5 km/h 84 % 0 mm
11:57 -13.6 °C -14.9 °C 34269.7 hPa West 25.9 km/h 54.4 km/h 85 % 0 mm
12:02 -13.5 °C -14.8 °C 34269.7 hPa WSW 25.9 km/h 54.4 km/h 85 % 0 mm
12:07 -13.5 °C -14.8 °C 34269.7 hPa SW 28.5 km/h 51.8 km/h 85 % 0 mm
12:12 -13.5 °C -14.8 °C 34269.7 hPa SW 20.8 km/h 51.8 km/h 85 % 0 mm
12:17 -13.4 °C -14.8 °C 34256.2 hPa SW 12.9 km/h 51.8 km/h 85 % 0 mm
12:22 -13.4 °C -14.8 °C 34256.2 hPa South 12.9 km/h 62.1 km/h 85 % 0 mm
12:27 -13.4 °C -14.7 °C 34256.2 hPa SW 46.7 km/h 62.1 km/h 85 % 0 mm
12:32 -13.4 °C -14.8 °C 34246 hPa SW 59.5 km/h 62.1 km/h 84 % 0 mm
12:37 -13.3 °C -14.7 °C 34256.2 hPa WSW 25.9 km/h 62.1 km/h 84 % 0 mm
12:42 -13.3 °C -14.6 °C 34256.2 hPa WSW 20.8 km/h 67.3 km/h 85 % 0 mm
12:52 -13.3 °C -14.6 °C 34256.2 hPa WSW 28.5 km/h 59.5 km/h 85 % 0 mm
13:02 -13.3 °C -14.6 °C 34246 hPa SW 25.9 km/h 62.1 km/h 85 % 0 mm
13:07 -13.2 °C -14.6 °C 34246 hPa West 41.4 km/h 59.5 km/h 85 % 0 mm
13:12 -13.2 °C -14.6 °C 34246 hPa WSW 36.2 km/h 59.5 km/h 85 % 0 mm
13:17 -13.2 °C -14.6 °C 34246 hPa WSW 41.4 km/h 57 km/h 85 % 0 mm
13:22 -13.2 °C -14.6 °C 34246 hPa SW 20.8 km/h 57 km/h 85 % 0 mm
13:32 -13.2 °C -14.4 °C 34235.8 hPa SSW 28.5 km/h 57 km/h 86 % 0 mm
13:37 -13.2 °C -14.4 °C 34235.8 hPa SSW 44.1 km/h 54.4 km/h 86 % 0 mm
13:42 -13.1 °C -14.3 °C 34222.3 hPa WSW 25.9 km/h 54.4 km/h 86 % 0 mm
13:47 -13.1 °C -14.3 °C 34222.3 hPa WSW 25.9 km/h 57 km/h 86 % 0 mm
13:52 -13 °C -14.3 °C 34222.3 hPa WSW 38.8 km/h 57 km/h 85 % 0 mm
13:57 -12.9 °C -14.3 °C 34222.3 hPa SW 31.1 km/h 51.8 km/h 85 % 0 mm
14:02 -12.9 °C -14.3 °C 34212.1 hPa SSW 10.3 km/h 51.8 km/h 85 % 0 mm
14:07 -12.9 °C -14.3 °C 34212.1 hPa WSW 38.8 km/h 54.4 km/h 85 % 0 mm
14:12 -12.9 °C -14.3 °C 34212.1 hPa WSW 23.3 km/h 54.4 km/h 85 % 0 mm
14:17 -12.9 °C -14.2 °C 34212.1 hPa West 23.3 km/h 57 km/h 86 % 0 mm
14:22 -12.9 °C -14.3 °C 34212.1 hPa West 25.9 km/h 57 km/h 85 % 0 mm
14:32 -12.9 °C -14.1 °C 34212.1 hPa West 23.3 km/h 57 km/h 86 % 0 mm
14:42 -12.9 °C -14.1 °C 34212.1 hPa West 31.1 km/h 54.4 km/h 86 % 0 mm
14:47 -12.9 °C -14.1 °C 34198.6 hPa WSW 33.6 km/h 51.8 km/h 86 % 0 mm
14:52 -12.8 °C -14.2 °C 34198.6 hPa SW 25.9 km/h 51.8 km/h 85 % 0 mm
14:57 -12.8 °C -14.1 °C 34198.6 hPa WSW 33.6 km/h 51.8 km/h 85 % 0 mm
15:02 -12.7 °C -14.1 °C 34188.4 hPa SSW 28.5 km/h 51.8 km/h 85 % 0 mm
15:07 -12.7 °C -14.1 °C 34188.4 hPa SW 44.1 km/h 57 km/h 85 % 0 mm
15:12 -12.7 °C -14.1 °C 34188.4 hPa West 20.8 km/h 57 km/h 85 % 0 mm
15:17 -12.7 °C -13.9 °C 34178.3 hPa WSW 38.8 km/h 57 km/h 86 % 0 mm
15:22 -12.7 °C -13.9 °C 34178.3 hPa SW 25.9 km/h 57 km/h 86 % 0 mm
15:27 -12.7 °C -14.1 °C 34178.3 hPa SW 25.9 km/h 46.7 km/h 85 % 0 mm
15:32 -12.7 °C -14 °C 34178.3 hPa WSW 31.1 km/h 46.7 km/h 85 % 0 mm
15:37 -12.7 °C -14 °C 34178.3 hPa SW 23.3 km/h 57 km/h 85 % 0 mm
15:42 -12.7 °C -14 °C 34178.3 hPa SSW 28.5 km/h 57 km/h 85 % 0 mm
15:47 -12.7 °C -13.9 °C 34178.3 hPa WSW 44.1 km/h 59.5 km/h 86 % 0 mm
15:52 -12.7 °C -13.9 °C 34178.3 hPa SW 33.6 km/h 59.5 km/h 86 % 0 mm
15:57 -12.7 °C -13.9 °C 34178.3 hPa SW 38.8 km/h 77.7 km/h 86 % 0 mm
16:02 -12.7 °C -13.9 °C 34178.3 hPa WSW 28.5 km/h 77.7 km/h 86 % 0 mm
16:07 -12.7 °C -13.9 °C 34178.3 hPa SW 33.6 km/h 64.7 km/h 86 % 0 mm
16:12 -12.7 °C -13.8 °C 34178.3 hPa West 25.9 km/h 64.7 km/h 87 % 0 mm
16:17 -12.7 °C -13.8 °C 34178.3 hPa West 23.3 km/h 64.7 km/h 87 % 0 mm
16:22 -12.8 °C -13.9 °C 34178.3 hPa SW 41.4 km/h 64.7 km/h 88 % 0 mm
16:32 -12.9 °C -13.8 °C 34178.3 hPa SW 33.6 km/h 59.5 km/h 90 % 0 mm
16:42 -13.1 °C -13.8 °C 34178.3 hPa WSW 28.5 km/h 67.3 km/h 92 % 0 mm
16:47 -13.1 °C -13.7 °C 34178.3 hPa SW 38.8 km/h 57 km/h 93 % 0 mm
16:52 -13.2 °C -13.8 °C 34178.3 hPa SW 25.9 km/h 57 km/h 93 % 0 mm
16:57 -13.2 °C -13.8 °C 34178.3 hPa WSW 38.8 km/h 54.4 km/h 93 % 0 mm
17:02 -13.2 °C -13.8 °C 34178.3 hPa SW 28.5 km/h 54.4 km/h 93 % 0 mm
17:07 -13.2 °C -13.8 °C 34178.3 hPa WSW 49.2 km/h 57 km/h 93 % 0 mm
17:12 -13.2 °C -13.8 °C 34178.3 hPa SW 28.5 km/h 57 km/h 93 % 0 mm
17:17 -13.2 °C -13.7 °C 34178.3 hPa SW 12.9 km/h 62.1 km/h 94 % 0 mm
17:22 -13.2 °C -13.7 °C 34178.3 hPa SW 25.9 km/h 62.1 km/h 94 % 0 mm
17:27 -13.2 °C -13.7 °C 34178.3 hPa WSW 18.2 km/h 44.1 km/h 94 % 0 mm
17:32 -13.2 °C -13.7 °C 34178.3 hPa SSW 20.8 km/h 44.1 km/h 94 % 0 mm
17:37 -13.2 °C -13.7 °C 34178.3 hPa WSW 33.6 km/h 54.4 km/h 94 % 0 mm
17:42 -13.2 °C -13.7 °C 34178.3 hPa SSW 20.8 km/h 54.4 km/h 94 % 0 mm
17:47 -13.2 °C -13.7 °C 34178.3 hPa SW 20.8 km/h 49.2 km/h 94 % 0 mm
17:52 -13.2 °C -13.7 °C 34178.3 hPa SW 25.9 km/h 49.2 km/h 94 % 0 mm
17:57 -13.2 °C -13.7 °C 34178.3 hPa SW 28.5 km/h 51.8 km/h 94 % 0 mm
18:02 -13.2 °C -13.7 °C 34178.3 hPa SW 36.2 km/h 51.8 km/h 94 % 0 mm
18:12 -13.2 °C -13.7 °C 34188.4 hPa WSW 15.6 km/h 51.8 km/h 95 % 0 mm
18:17 -13.2 °C -13.7 °C 34188.4 hPa SW 20.8 km/h 51.8 km/h 95 % 0 mm
18:22 -13.2 °C -13.7 °C 34188.4 hPa SW 18.2 km/h 51.8 km/h 95 % 0 mm
18:32 -13.2 °C -13.7 °C 34188.4 hPa SW 15.6 km/h 51.8 km/h 95 % 0 mm
18:37 -13.2 °C -13.7 °C 34188.4 hPa WSW 33.6 km/h 51.8 km/h 95 % 0 mm
18:42 -13.2 °C -13.7 °C 34198.6 hPa WSW 18.2 km/h 49.2 km/h 95 % 7.62 mm
18:52 -13.2 °C -13.7 °C 34198.6 hPa WNW 20.8 km/h 41.4 km/h 95 % 7.62 mm
18:57 -13.2 °C -13.6 °C 34198.6 hPa SW 15.6 km/h 46.7 km/h 95 % 7.62 mm
19:02 -13.2 °C -13.6 °C 34198.6 hPa SW 28.5 km/h 46.7 km/h 95 % 7.62 mm
19:07 -13.2 °C -13.6 °C 34198.6 hPa West 12.9 km/h 49.2 km/h 95 % 12.7 mm
19:12 -13.2 °C -13.6 °C 34198.6 hPa SW 10.3 km/h 49.2 km/h 95 % 12.7 mm
19:17 -13.1 °C -13.6 °C 34198.6 hPa WSW 25.9 km/h 51.8 km/h 95 % 12.7 mm
19:22 -13.1 °C -13.6 °C 34212.1 hPa SW 15.6 km/h 51.8 km/h 95 % 12.7 mm
19:42 -13.1 °C -13.5 °C 34212.1 hPa WSW 12.9 km/h 44.1 km/h 95 % 7.62 mm
19:52 -13 °C -13.4 °C 34212.1 hPa SW 18.2 km/h 36.2 km/h 95 % 7.62 mm
19:57 -12.9 °C -13.4 °C 34212.1 hPa WSW 12.9 km/h 33.6 km/h 95 % 7.62 mm
20:02 -12.9 °C -13.4 °C 34222.3 hPa SSW 10.3 km/h 33.6 km/h 95 % 7.62 mm
20:07 -12.9 °C -13.4 °C 34222.3 hPa West 20.8 km/h 38.8 km/h 95 % 0 mm
20:12 -12.9 °C -13.3 °C 34212.1 hPa WSW 15.6 km/h 38.8 km/h 95 % 0 mm
20:17 -12.9 °C -13.3 °C 34222.3 hPa SW 28.5 km/h 41.4 km/h 95 % 0 mm
20:22 -12.9 °C -13.3 °C 34222.3 hPa WSW 31.1 km/h 41.4 km/h 95 % 0 mm
20:27 -12.9 °C -13.3 °C 34222.3 hPa West 10.3 km/h 41.4 km/h 95 % 7.62 mm
20:32 -12.8 °C -13.3 °C 34235.8 hPa WNW 15.6 km/h 41.4 km/h 95 % 7.62 mm
20:37 -12.8 °C -13.3 °C 34235.8 hPa WSW 36.2 km/h 41.4 km/h 95 % 38.1 mm
20:42 -12.8 °C -13.3 °C 34235.8 hPa WNW 12.9 km/h 41.4 km/h 95 % 38.1 mm
20:52 -12.8 °C -13.3 °C 34235.8 hPa West 12.9 km/h 38.8 km/h 94 % 58.42 mm
20:57 -12.8 °C -13.3 °C 34235.8 hPa WNW 15.6 km/h 36.2 km/h 94 % 63.5 mm
21:02 -12.8 °C -13.3 °C 34246 hPa West 10.3 km/h 36.2 km/h 94 % 63.5 mm
21:07 -12.9 °C -13.6 °C 34246 hPa WNW 15.6 km/h 33.6 km/h 92 % 76.2 mm
21:12 -12.9 °C -13.6 °C 34246 hPa NNE 5.1 km/h 33.6 km/h 93 % 76.2 mm
21:17 -13 °C -13.8 °C 34246 hPa WNW 20.8 km/h 33.6 km/h 90 % 83.82 mm
21:22 -13 °C -13.8 °C 34246 hPa WNW 18.2 km/h 33.6 km/h 91 % 83.82 mm
21:32 -12.9 °C -13.8 °C 34256.2 hPa WNW 33.6 km/h 33.6 km/h 90 % 83.82 mm
21:37 -12.9 °C -13.8 °C 34246 hPa West 15.6 km/h 41.4 km/h 90 % 38.1 mm
21:42 -12.9 °C -13.8 °C 34256.2 hPa WNW 12.9 km/h 41.4 km/h 90 % 38.1 mm
21:47 -13 °C -13.8 °C 34256.2 hPa WNW 10.3 km/h 38.8 km/h 90 % 33.02 mm
21:57 -12.9 °C -14 °C 34256.2 hPa WNW 12.9 km/h 25.9 km/h 87 % 33.02 mm
22:07 -12.9 °C -14.1 °C 34256.2 hPa WNW 10.3 km/h 25.9 km/h 87 % 12.7 mm
22:12 -13.1 °C -14.1 °C 34256.2 hPa West 2.6 km/h 25.9 km/h 88 % 12.7 mm
22:22 -13.1 °C -13.9 °C 34256.2 hPa WNW 5.1 km/h 20.8 km/h 90 % 12.7 mm
22:27 -13.2 °C -14 °C 34269.7 hPa WSW 5.1 km/h 12.9 km/h 90 % 7.62 mm
22:32 -13.2 °C -14 °C 34269.7 hPa West 2.6 km/h 12.9 km/h 90 % 7.62 mm
22:37 -13.1 °C -14.1 °C 34269.7 hPa WNW 15.6 km/h 25.9 km/h 89 % 0 mm
22:42 -13.1 °C -14.2 °C 34269.7 hPa West 10.3 km/h 25.9 km/h 88 % 0 mm
22:47 -13.1 °C -14.2 °C 34269.7 hPa WNW 10.3 km/h 25.9 km/h 88 % 0 mm
22:52 -13.2 °C -14.3 °C 34269.7 hPa WNW 5.1 km/h 25.9 km/h 87 % 0 mm
22:57 -13.2 °C -14.3 °C 34279.9 hPa WSW 15.6 km/h 20.8 km/h 87 % 0 mm
23:02 -13.2 °C -14.4 °C 34269.7 hPa West 15.6 km/h 20.8 km/h 86 % 0 mm
23:07 -13.2 °C -14.6 °C 34279.9 hPa WNW 10.3 km/h 28.5 km/h 84 % 0 mm
23:12 -13.2 °C -14.6 °C 34279.9 hPa West 12.9 km/h 28.5 km/h 84 % 0 mm
23:17 -13.3 °C -14.7 °C 34279.9 hPa WNW 12.9 km/h 28.5 km/h 84 % 0 mm
23:22 -13.3 °C -14.6 °C 34279.9 hPa West 2.6 km/h 28.5 km/h 85 % 0 mm
23:27 -13.3 °C -14.7 °C 34279.9 hPa West 15.6 km/h 20.8 km/h 85 % 0 mm
23:32 -13.4 °C -15.2 °C 34279.9 hPa West 28.5 km/h 28.5 km/h 80 % 0 mm
23:42 -13.4 °C -15.2 °C 34293.4 hPa NW 18.2 km/h 46.7 km/h 80 % 0 mm
23:47 -13.6 °C -15.3 °C 34293.4 hPa West 15.6 km/h 46.7 km/h 80 % 0 mm
23:52 -13.6 °C -15.3 °C 34293.4 hPa WNW 10.3 km/h 46.7 km/h 81 % 0 mm
23:57 -13.7 °C -15.3 °C 34293.4 hPa WSW 10.3 km/h 28.5 km/h 81 % 0 mm
Meteo18
Compliments of Weather Underground - 4 mb

Script developed by  Jim McMurry - jmcmurry@mwt.net Adapted for the template by  Wim van der Kuil - Leuven-Template.eu

You find our weather info also at:

European Weather Network

Weather Underground

Equipment we use:

Weather-station
Davis Vue

Weather-program
Meteobridge

Weather-server
Raspberry PI 2 B+

Provider
1 and 1

Davis Vue

Meteobridge

Raspberry PI 2 B+

1 and 1